EW9837 Weather Reports


Display with metric or nautical units.
time (UTC)temp
F
wind
direction
speed
MPH
gust
MPH
rain 1hr
in
rain 24hr
in
rain mn
in
humidity
%
barometer
mb
20260505124608 45 169 2.0 5.0 0.00 0.00 0.00 95 1015.0
20260505123036 44 169 3.0 5.0 0.00 0.00 0.00 95 1015.0
20260505121608 45 155 3.0 4.0 0.00 0.00 0.00 95 1015.0
20260505120035 45 155 3.0 4.0 0.00 0.00 0.00 94 1014.9
20260505113035 45 165 2.0 4.0 0.00 0.00 0.00 94 1014.9
20260505111607 46 175 3.0 4.0 0.00 0.00 0.00 94 1014.8
20260505101608 47 164 3.0 4.0 0.00 0.00 0.00 91 1014.5
20260505100047 47 187 2.0 4.0 0.00 0.00 0.00 90 1014.5
20260505094534 48 200 1.0 5.0 0.00 0.00 0.00 89 1014.4
20260505093108 49 199 2.0 5.0 0.00 0.00 0.00 87 1014.4
20260505091536 50 156 2.0 5.0 0.00 0.00 0.00 84 1014.3
20260505090036 52 146 2.0 4.0 0.00 0.00 0.00 83 1014.3
20260505084534 52 158 3.0 6.0 0.00 0.00 0.00 83 1014.2
20260505083033 52 92 2.0 6.0 0.00 0.00 0.00 83 1014.2
20260505081535 54 140 0.0 3.0 0.00 0.00 0.00 81 1014.2
20260505080037 56 106 2.0 5.0 0.00 0.00 0.00 80 1014.3
20260505074607 56 115 2.0 6.0 0.00 0.00 0.00 79 1014.2
20260505073037 58 149 1.0 6.0 0.00 0.00 0.00 77 1014.2
20260505071537 57 127 3.0 8.0 0.00 0.00 0.00 79 1014.1
20260505070107 58 92 2.0 5.0 0.00 0.00 0.00 77 1014.0
20260505064534 58 132 1.0 8.0 0.00 0.00 0.00 76 1014.0
20260505061643 60 102 2.0 5.0 0.00 0.00 0.00 71 1014.0
20260505053037 62 208 3.0 6.0 0.00 0.00 0.00 66 1013.9
20260505051538 62 276 2.0 7.0 0.00 0.00 0.00 64 1013.9
20260505041536 63 197 3.0 7.0 0.00 0.00 0.00 57 1013.5
20260505040049 64 211 2.0 6.0 0.00 0.00 0.00 53 1013.3
20260505033110 65 268 5.0 14.0 0.00 0.00 0.00 50 1012.9
20260505031534 66 110 3.0 7.0 0.00 0.00 0.00 48 1012.6
20260505030037 67 218 3.0 13.0 0.00 0.00 0.00 47 1012.5
20260505024534 68 192 3.0 12.0 0.00 0.00 0.00 45 1012.4
20260505023036 69 231 4.0 14.0 0.00 0.00 0.00 44 1012.3
20260505021658 70 285 4.0 13.0 0.00 0.00 0.00 43 1012.2
20260505020036 71 304 5.0 13.0 0.00 0.00 0.00 42 1012.2
20260505013110 74 259 3.0 11.0 0.00 0.00 0.00 38 1012.1
20260505011535 75 269 3.0 12.0 0.00 0.00 0.00 36 1012.0
20260505010033 75 247 6.0 14.0 0.00 0.00 0.00 36 1012.0
20260505004535 76 241 7.0 18.0 0.00 0.00 0.00 35 1012.1
20260505001531 77 244 8.0 19.0 0.00 0.00 0.00 35 1012.0
20260505000110 78 261 6.0 13.0 0.00 0.00 0.00 35 1012.0
20260504234607 79 255 6.0 17.0 0.00 0.00 0.00 34 1011.9
20260504231535 79 258 7.0 23.0 0.00 0.00 0.00 35 1011.9
20260504224537 79 241 8.0 17.0 0.00 0.00 0.00 34 1012.2
20260504223035 80 247 8.0 18.0 0.00 0.00 0.00 33 1012.3
20260504221611 80 249 7.0 18.0 0.00 0.00 0.00 33 1012.3
20260504220031 81 264 5.0 14.0 0.00 0.00 0.00 33 1012.3
20260504214535 81 251 6.0 12.0 0.00 0.00 0.00 33 1012.4
20260504211536 81 264 6.0 14.0 0.00 0.00 0.00 33 1012.5
20260504210036 81 265 6.0 14.0 0.00 0.00 0.00 33 1012.5
20260504203033 81 264 5.0 13.0 0.00 0.00 0.00 33 1012.6
20260504201614 81 259 6.0 14.0 0.00 0.00 0.00 33 1012.8
20260504200036 80 299 4.0 11.0 0.00 0.00 0.00 33 1012.8
20260504194535 80 289 5.0 15.0 0.00 0.00 0.00 33 1012.8
20260504191643 79 18 7.0 14.0 0.00 0.00 0.00 41 1012.9
20260504190037 79 32 5.0 11.0 0.00 0.00 0.00 42 1013.0
20260504184536 79 52 5.0 10.0 0.00 0.00 0.00 43 1013.0
20260504183037 78 55 6.0 10.0 0.00 0.00 0.00 43 1013.0
20260504181529 79 39 6.0 12.0 0.00 0.00 0.00 43 1013.0
20260504180036 78 32 5.0 10.0 0.00 0.00 0.00 43 1013.0
20260504174608 77 52 6.0 14.0 0.00 0.00 0.00 43 1013.0
20260504173032 77 51 4.0 12.0 0.00 0.00 0.00 43 1013.0
20260504171534 76 28 2.0 7.0 0.00 0.00 0.00 45 1013.1
20260504150107 62 106 2.0 5.0 0.00 0.00 0.00 75 1013.4
20260504140108 48 156 3.0 5.0 0.00 0.00 0.00 95 1013.0